Regional Weather Roundup
Issued by NWS

Home | Current Version | Previous Version | Text Only | Print | Product List | Glossary On
Versions: 1 2 3 4 5 6 7 8 9 10 11 12 13 14 15 16 17 18 19 20 21 22 23 24 25 26 27 28 29 30 31 32 33 34 35 36 37 38 39 40 41 42 43 44 45 46 47 48 49 50
000
ASUS44 KBMX 031110
RWRAL

ALABAMA REGIONAL WEATHER ROUNDUP
NATIONAL WEATHER SERVICE BIRMINGHAM AL
600 AM CDT MON AUG 03 2015

NOTE: "FAIR" INDICATES FEW OR NO CLOUDS BELOW 12,000 FEET
WITH NO SIGNIFICANT WEATHER AND/OR OBSTRUCTIONS TO VISIBILITY.

THE REMARK "TC" DENOTES TEMPERATURE IN DEGREES CELSIUS.

ALZ001>011-014-016>018-020-031200-
NORTH ALABAMA

CITY           SKY/WX    TMP DP  RH WIND       PRES   REMARKS
MUSCLE SHOALS  CLEAR     63  60  90 CALM      29.94R
HUNTSVILLE     PTCLDY    65  59  81 CALM      29.93R
DECATUR        CLEAR     60  60 100 CALM      29.94R
HALEYVILLE     FAIR      60  60 100 CALM      29.97R
GADSDEN        CLEAR     63  55  77 W3        29.90R
$$

ALZ012-013-022-023-030>036-040>044-031200-
WEST CENTRAL ALABAMA

CITY           SKY/WX    TMP DP  RH WIND       PRES   REMARKS
TUSCALOOSA     CLEAR     68  63  84 CALM      29.90R
$$

ALZ015-024>027-033>036-040>044-031200-
CENTRAL ALABAMA

CITY           SKY/WX    TMP DP  RH WIND       PRES   REMARKS
BIRMINGHAM     PTCLDY    67  62  84 CALM      29.93R
MONTGOMERY     CLEAR     69  65  86 CALM      29.88R
SHELBY CO ARPT CLEAR     68  65  90 CALM      29.91R
MAXWELL AFB    CLEAR     72  63  73 N5        29.87R
GREENVILLE     FAIR      70  63  78 N3        29.88R
$$

ALZ019-021-028-029-037-038-045>048-031200-
EAST CENTRAL ALABAMA

CITY           SKY/WX    TMP DP  RH WIND       PRES   REMARKS
ANNISTON       CLEAR     64  61  90 CALM      29.91R
ALEXANDER CITY CLEAR     70  62  73 CALM      29.91R
AUBURN         CLEAR     73  72  94 E5        29.92R
$$

ALZ051>064-031200-
SOUTHWEST ALABAMA

CITY           SKY/WX    TMP DP  RH WIND       PRES   REMARKS
MOBILE         PTCLDY    74  73  97 NW5       29.89R
BROOKLEY FIELD CLEAR     78  71  79 W5        29.89R
EVERGREEN      CLEAR     66  65  96 CALM      29.89R
$$

ALZ049-050-065>069-031200-
SOUTHEAST ALABAMA

CITY           SKY/WX    TMP DP  RH WIND       PRES   REMARKS
DOTHAN         CLEAR     73  71  93 CALM      29.91R
OZARK          CLEAR     73  72  94 N2        29.87R
TROY           CLEAR     71  70  96 CALM      29.88S
EUFAULA        FAIR      73  71  93 CALM      29.87R
$$


USA.gov is the U.S. government's official web portal to all federal, state and local government web resources and services.